Time,TemperatureF,DewpointF,PressureIn,WindDirection,WindDirectionDegrees,WindSpeedMPH,WindSpeedGustMPH,Humidity,HourlyPrecipIn,Conditions,Clouds,dailyrainin,SoftwareType,DateUTC
2013-08-05 01:20:00,80.4,57.2,30.06,NW,313,5.0,5.0,45,0.00,,,0.00,meteohub,2013-08-05 07:20:00,
2013-08-05 01:21:00,80.2,57.0,30.06,NW,314,3.0,5.0,45,0.00,,,0.00,meteohub,2013-08-05 07:21:00,
2013-08-05 01:22:00,80.4,57.2,30.06,NW,314,5.0,5.0,45,0.00,,,0.00,meteohub,2013-08-05 07:22:00,
2013-08-05 01:23:00,80.4,57.2,30.06,NW,314,3.0,5.0,45,0.00,,,0.00,meteohub,2013-08-05 07:23:00,
2013-08-05 01:29:00,80.4,57.2,30.06,NW,314,3.0,5.0,45,0.00,,,0.00,meteohub,2013-08-05 07:29:00,
2013-08-05 01:35:00,80.2,57.0,30.06,NW,320,4.0,6.0,45,0.00,,,0.00,meteohub,2013-08-05 07:35:00,
2013-08-05 01:40:00,80.4,56.5,30.06,NW,318,0.0,7.0,44,0.00,,,0.00,meteohub,2013-08-05 07:40:00,
2013-08-05 01:47:00,80.1,56.8,30.06,NW,318,0.0,7.0,45,0.00,,,0.00,meteohub,2013-08-05 07:47:00,
2013-08-05 01:52:00,80.1,56.8,30.05,NW,318,1.0,7.0,45,0.00,,,0.00,meteohub,2013-08-05 07:52:00,
2013-08-05 01:57:00,80.2,57.0,30.06,NNW,333,0.0,3.0,45,0.00,,,0.00,meteohub,2013-08-05 07:57:00,
2013-08-05 02:02:00,80.1,56.8,30.06,NNW,333,3.0,3.0,45,0.00,,,0.00,meteohub,2013-08-05 08:02:00,
2013-08-05 02:08:00,79.9,56.7,30.06,NNW,333,1.0,3.0,45,0.00,,,0.00,meteohub,2013-08-05 08:08:00,
2013-08-05 02:14:00,78.3,58.1,30.06,ESE,119,0.0,3.0,50,0.00,,,0.00,meteohub,2013-08-05 08:14:00,
2013-08-05 02:20:00,77.7,57.6,30.06,ESE,119,0.0,5.0,50,0.00,,,0.00,meteohub,2013-08-05 08:20:00,
2013-08-05 02:26:00,78.3,57.6,30.06,NNW,339,0.0,4.0,49,0.00,,,0.00,meteohub,2013-08-05 08:26:00,
2013-08-05 02:31:00,79.0,57.0,30.07,NNW,339,2.0,4.0,47,0.00,,,0.00,meteohub,2013-08-05 08:31:00,
2013-08-05 02:36:00,79.3,56.8,30.07,NNW,339,2.0,4.0,46,0.00,,,0.00,meteohub,2013-08-05 08:36:00,
2013-08-05 02:42:00,79.5,56.8,30.07,NNW,339,0.0,4.0,46,0.00,,,0.00,meteohub,2013-08-05 08:42:00,
2013-08-05 02:47:00,79.5,56.3,30.06,NNW,339,0.0,4.0,45,0.00,,,0.00,meteohub,2013-08-05 08:47:00,
2013-08-05 02:52:00,79.7,56.5,30.06,NNW,339,0.0,4.0,45,0.00,,,0.00,meteohub,2013-08-05 08:52:00,
2013-08-05 02:57:00,79.7,56.5,30.07,NNW,339,0.0,0.0,45,0.00,,,0.00,meteohub,2013-08-05 08:57:00,
2013-08-05 03:03:00,79.5,56.3,30.07,NNW,339,0.0,2.0,45,0.00,,,0.00,meteohub,2013-08-05 09:03:00,
2013-08-05 03:08:00,79.3,57.4,30.07,NNW,339,0.0,2.0,47,0.00,,,0.00,meteohub,2013-08-05 09:08:00,
2013-08-05 03:15:00,79.0,57.0,30.07,NNW,339,0.0,2.0,47,0.00,,,0.00,meteohub,2013-08-05 09:15:00,
2013-08-05 03:20:00,79.0,58.1,30.07,ENE,74,3.0,3.0,49,0.00,,,0.00,meteohub,2013-08-05 09:20:00,
2013-08-05 03:26:00,77.7,57.6,30.07,ENE,74,0.0,5.0,50,0.00,,,0.00,meteohub,2013-08-05 09:26:00,
2013-08-05 03:32:00,77.7,57.6,30.08,East,86,1.0,5.0,50,0.00,,,0.00,meteohub,2013-08-05 09:32:00,
2013-08-05 03:37:00,77.4,57.2,30.08,SSW,196,1.0,5.0,50,0.00,,,0.00,meteohub,2013-08-05 09:37:00,
2013-08-05 03:42:00,77.2,57.7,30.07,SSW,196,3.0,5.0,51,0.00,,,0.00,meteohub,2013-08-05 09:42:00,
2013-08-05 03:47:00,77.2,57.0,30.08,SSW,194,5.0,5.0,50,0.00,,,0.00,meteohub,2013-08-05 09:47:00,
2013-08-05 03:52:00,76.6,57.7,30.08,SSW,194,2.0,5.0,52,0.00,,,0.00,meteohub,2013-08-05 09:52:00,
2013-08-05 03:57:00,76.5,57.0,30.07,SSW,194,0.0,5.0,51,0.00,,,0.00,meteohub,2013-08-05 09:57:00,
2013-08-05 04:02:00,76.6,56.7,30.07,SSW,194,2.0,5.0,50,0.00,,,0.00,meteohub,2013-08-05 10:02:00,
2013-08-05 04:09:00,76.8,56.8,30.07,South,190,2.0,4.0,50,0.00,,,0.00,meteohub,2013-08-05 10:09:00,
2013-08-05 04:14:00,76.6,56.7,30.08,SSW,207,3.0,4.0,50,0.00,,,0.00,meteohub,2013-08-05 10:14:00,
2013-08-05 04:20:00,77.0,56.3,30.09,SW,227,5.0,8.0,49,0.00,,,0.00,meteohub,2013-08-05 10:20:00,
2013-08-05 04:26:00,77.2,56.5,30.09,WSW,244,5.0,9.0,49,0.00,,,0.00,meteohub,2013-08-05 10:26:00,
2013-08-05 04:31:00,77.2,56.5,30.09,WSW,241,3.0,9.0,49,0.00,,,0.00,meteohub,2013-08-05 10:31:00,
2013-08-05 04:36:00,77.2,56.5,30.09,SW,236,5.0,9.0,49,0.00,,,0.00,meteohub,2013-08-05 10:36:00,
2013-08-05 04:42:00,77.4,56.7,30.09,WSW,250,8.0,8.0,49,0.00,,,0.00,meteohub,2013-08-05 10:42:00,
2013-08-05 04:47:00,77.5,56.8,30.10,WNW,287,5.0,9.0,49,0.00,,,0.00,meteohub,2013-08-05 10:47:00,
2013-08-05 04:52:00,77.5,56.8,30.10,WNW,303,2.0,9.0,49,0.00,,,0.00,meteohub,2013-08-05 10:52:00,
2013-08-05 04:56:00,77.5,57.4,30.10,WNW,302,4.0,9.0,50,0.00,,,0.00,meteohub,2013-08-05 10:56:00,
2013-08-05 05:02:00,77.4,57.7,30.11,WNW,283,0.0,6.0,51,0.00,,,0.00,meteohub,2013-08-05 11:02:00,
2013-08-05 05:07:00,77.4,58.3,30.11,WSW,243,2.0,5.0,52,0.00,,,0.00,meteohub,2013-08-05 11:07:00,
2013-08-05 05:12:00,77.2,58.3,30.11,WSW,246,6.0,6.0,52,0.00,,,0.00,meteohub,2013-08-05 11:12:00,
2013-08-05 05:17:00,77.0,58.6,30.10,WSW,253,7.0,8.0,53,0.00,,,0.00,meteohub,2013-08-05 11:17:00,
2013-08-05 05:23:00,76.8,59.0,30.10,WSW,254,2.0,10.0,54,0.00,,,0.00,meteohub,2013-08-05 11:23:00,
2013-08-05 05:29:00,76.8,59.4,30.11,SW,233,6.0,10.0,55,0.00,,,0.00,meteohub,2013-08-05 11:29:00,
2013-08-05 05:35:00,76.8,59.4,30.11,WSW,238,7.0,10.0,55,0.00,,,0.00,meteohub,2013-08-05 11:35:00,
2013-08-05 05:41:00,76.8,59.4,30.11,WNW,293,14.0,14.0,55,0.00,,,0.00,meteohub,2013-08-05 11:41:00,
2013-08-05 05:46:00,77.0,59.5,30.11,WSW,247,9.0,16.0,55,0.00,,,0.00,meteohub,2013-08-05 11:46:00,
2013-08-05 05:52:00,76.8,59.4,30.11,West,271,8.0,16.0,55,0.00,,,0.00,meteohub,2013-08-05 11:52:00,
2013-08-05 05:57:00,76.8,59.4,30.11,WNW,284,8.0,16.0,55,0.00,,,0.00,meteohub,2013-08-05 11:57:00,
2013-08-05 06:01:00,76.8,59.9,30.12,WNW,293,7.0,16.0,56,0.00,,,0.00,meteohub,2013-08-05 12:01:00,
2013-08-05 06:06:00,76.8,59.9,30.12,NW,306,3.0,13.0,56,0.00,,,0.00,meteohub,2013-08-05 12:06:00,
2013-08-05 06:12:00,76.6,59.7,30.12,NW,314,3.0,11.0,56,0.00,,,0.00,meteohub,2013-08-05 12:12:00,
2013-08-05 06:17:00,76.6,60.3,30.12,WNW,291,6.0,11.0,57,0.00,,,0.00,meteohub,2013-08-05 12:17:00,
2013-08-05 06:21:00,76.6,60.3,30.12,West,269,8.0,9.0,57,0.00,,,0.00,meteohub,2013-08-05 12:21:00,
2013-08-05 06:27:00,76.5,60.6,30.12,West,270,7.0,13.0,58,0.00,,,0.00,meteohub,2013-08-05 12:27:00,
2013-08-05 06:33:00,76.3,60.4,30.12,West,269,8.0,13.0,58,0.00,,,0.00,meteohub,2013-08-05 12:33:00,
2013-08-05 06:39:00,76.1,60.3,30.12,West,281,0.0,13.0,58,0.00,,,0.00,meteohub,2013-08-05 12:39:00,
2013-08-05 06:44:00,75.9,60.1,30.13,East,97,2.0,13.0,58,0.00,,,0.00,meteohub,2013-08-05 12:44:00,
2013-08-05 06:50:00,75.6,60.3,30.13,ESE,106,2.0,10.0,59,0.00,,,0.00,meteohub,2013-08-05 12:50:00,
2013-08-05 06:57:00,75.4,60.4,30.13,ESE,106,0.0,6.0,60,0.00,,,0.00,meteohub,2013-08-05 12:57:00,
2013-08-05 07:02:00,75.7,60.4,30.14,ENE,68,0.0,5.0,59,0.00,,,0.00,meteohub,2013-08-05 13:02:00,
2013-08-05 07:07:00,76.3,61.0,30.14,ENE,68,0.0,5.0,59,0.00,,,0.00,meteohub,2013-08-05 13:07:00,
2013-08-05 07:13:00,76.8,61.0,30.14,NE,51,0.0,5.0,58,0.00,,,0.00,meteohub,2013-08-05 13:13:00,
2013-08-05 07:18:00,76.8,60.4,30.14,North,9,5.0,5.0,57,0.00,,,0.00,meteohub,2013-08-05 13:18:00,
2013-08-05 07:24:00,76.8,61.0,30.14,NNW,347,2.0,9.0,58,0.00,,,0.00,meteohub,2013-08-05 13:24:00,
2013-08-05 07:29:00,76.6,60.8,30.14,North,5,3.0,9.0,58,0.00,,,0.00,meteohub,2013-08-05 13:29:00,
2013-08-05 07:34:00,76.6,60.8,30.14,NNW,342,7.0,9.0,58,0.00,,,0.00,meteohub,2013-08-05 13:34:00,
2013-08-05 07:39:00,76.6,60.8,30.14,North,350,4.0,9.0,58,0.00,,,0.00,meteohub,2013-08-05 13:39:00,
2013-08-05 07:45:00,76.8,60.4,30.14,NNW,340,3.0,9.0,57,0.00,,,0.00,meteohub,2013-08-05 13:45:00,
2013-08-05 07:50:00,77.4,59.9,30.14,WNW,303,10.0,10.0,55,0.00,,,0.00,meteohub,2013-08-05 13:50:00,
2013-08-05 07:57:00,77.9,59.9,30.14,North,351,4.0,12.0,54,0.00,,,0.00,meteohub,2013-08-05 13:57:00,
2013-08-05 08:02:00,78.3,59.7,30.14,North,5,2.0,12.0,53,0.00,,,0.00,meteohub,2013-08-05 14:02:00,
2013-08-05 08:08:00,78.6,59.5,30.15,NNE,24,6.0,11.0,52,0.00,,,0.00,meteohub,2013-08-05 14:08:00,
2013-08-05 08:13:00,78.4,59.9,30.15,NNE,21,8.0,11.0,53,0.00,,,0.00,meteohub,2013-08-05 14:13:00,
2013-08-05 08:20:00,78.8,59.7,30.15,North,349,7.0,11.0,52,0.00,,,0.00,meteohub,2013-08-05 14:20:00,
2013-08-05 08:25:00,79.2,60.6,30.15,NE,44,6.0,9.0,53,0.00,,,0.00,meteohub,2013-08-05 14:25:00,
2013-08-05 08:32:00,79.7,60.4,30.15,North,355,4.0,10.0,52,0.00,,,0.00,meteohub,2013-08-05 14:32:00,
2013-08-05 08:37:00,79.9,60.1,30.15,NNW,333,4.0,10.0,51,0.00,,,0.00,meteohub,2013-08-05 14:37:00,
2013-08-05 08:41:00,80.2,59.4,30.15,NNW,334,8.0,10.0,49,0.00,,,0.00,meteohub,2013-08-05 14:41:00,
2013-08-05 08:46:00,80.2,59.9,30.15,NNW,342,10.0,11.0,50,0.00,,,0.00,meteohub,2013-08-05 14:46:00,
2013-08-05 08:52:00,80.8,59.2,30.15,NW,321,12.0,14.0,48,0.00,,,0.00,meteohub,2013-08-05 14:52:00,
2013-08-05 08:57:00,80.8,58.6,30.16,NNW,340,9.0,16.0,47,0.00,,,0.00,meteohub,2013-08-05 14:57:00,
2013-08-05 09:02:00,80.8,58.1,30.15,NNW,340,8.0,17.0,46,0.00,,,0.00,meteohub,2013-08-05 15:02:00,
2013-08-05 09:08:00,81.1,58.5,30.15,NW,323,9.0,17.0,46,0.00,,,0.00,meteohub,2013-08-05 15:08:00,
2013-08-05 09:14:00,81.5,58.6,30.15,NNW,336,8.0,17.0,46,0.00,,,0.00,meteohub,2013-08-05 15:14:00,
2013-08-05 09:20:00,81.7,58.8,30.15,NNW,339,10.0,17.0,46,0.00,,,0.00,meteohub,2013-08-05 15:20:00,
2013-08-05 09:25:00,81.9,59.0,30.15,NW,317,11.0,17.0,46,0.00,,,0.00,meteohub,2013-08-05 15:25:00,
2013-08-05 09:32:00,82.0,59.2,30.14,NNW,327,8.0,17.0,46,0.00,,,0.00,meteohub,2013-08-05 15:32:00,
2013-08-05 09:37:00,82.8,59.2,30.15,NNW,336,6.0,17.0,45,0.00,,,0.00,meteohub,2013-08-05 15:37:00,
2013-08-05 09:42:00,82.8,59.2,30.14,NW,311,7.0,15.0,45,0.00,,,0.00,meteohub,2013-08-05 15:42:00,
2013-08-05 09:47:00,83.1,59.5,30.14,NNW,343,6.0,13.0,45,0.00,,,0.00,meteohub,2013-08-05 15:47:00,
2013-08-05 09:52:00,83.1,59.0,30.14,North,0,2.0,12.0,44,0.00,,,0.00,meteohub,2013-08-05 15:52:00,
2013-08-05 09:57:00,84.0,59.2,30.14,NNW,329,2.0,11.0,43,0.00,,,0.00,meteohub,2013-08-05 15:57:00,
2013-08-05 10:02:00,84.2,59.4,30.15,NNW,332,2.0,11.0,43,0.00,,,0.00,meteohub,2013-08-05 16:02:00,
2013-08-05 10:07:00,84.6,59.5,30.14,NW,319,7.0,11.0,43,0.00,,,0.00,meteohub,2013-08-05 16:07:00,
2013-08-05 10:13:00,84.7,59.2,30.14,NNW,340,2.0,13.0,42,0.00,,,0.00,meteohub,2013-08-05 16:13:00,
2013-08-05 10:18:00,85.3,59.0,30.14,NW,319,5.0,13.0,41,0.00,,,0.00,meteohub,2013-08-05 16:18:00,
2013-08-05 10:24:00,85.5,59.0,30.14,NW,325,3.0,13.0,41,0.00,,,0.00,meteohub,2013-08-05 16:24:00,
2013-08-05 10:30:00,86.4,58.5,30.14,WNW,289,9.0,11.0,39,0.00,,,0.00,meteohub,2013-08-05 16:30:00,
2013-08-05 10:36:00,86.7,58.8,30.14,NNW,333,4.0,11.0,39,0.00,,,0.00,meteohub,2013-08-05 16:36:00,
2013-08-05 10:42:00,87.1,59.2,30.14,NNW,348,11.0,11.0,39,0.00,,,0.00,meteohub,2013-08-05 16:42:00,
2013-08-05 10:46:00,87.3,58.6,30.14,WNW,299,7.0,11.0,38,0.00,,,0.00,meteohub,2013-08-05 16:46:00,
2013-08-05 10:51:00,87.6,58.1,30.14,NW,324,6.0,11.0,37,0.00,,,0.00,meteohub,2013-08-05 16:51:00,
2013-08-05 10:58:00,87.3,57.7,30.14,NNW,329,2.0,11.0,37,0.00,,,0.00,meteohub,2013-08-05 16:58:00,
2013-08-05 11:03:00,88.0,57.7,30.14,West,265,5.0,11.0,36,0.00,,,0.00,meteohub,2013-08-05 17:03:00,
2013-08-05 11:09:00,88.2,58.6,30.14,North,11,9.0,11.0,37,0.00,,,0.00,meteohub,2013-08-05 17:09:00,
2013-08-05 11:15:00,88.9,58.5,30.13,NNW,348,6.0,9.0,36,0.00,,,0.00,meteohub,2013-08-05 17:15:00,
2013-08-05 11:20:00,89.1,58.6,30.14,NNE,26,0.0,11.0,36,0.00,,,0.00,meteohub,2013-08-05 17:20:00,
2013-08-05 11:26:00,89.8,58.5,30.13,NNW,332,9.0,11.0,35,0.00,,,0.00,meteohub,2013-08-05 17:26:00,
2013-08-05 11:31:00,88.9,58.5,30.13,NNW,343,3.0,11.0,36,0.00,,,0.00,meteohub,2013-08-05 17:31:00,
2013-08-05 11:37:00,89.1,58.6,30.13,NW,324,7.0,11.0,36,0.00,,,0.00,meteohub,2013-08-05 17:37:00,
2013-08-05 11:42:00,90.0,57.7,30.13,WNW,284,4.0,11.0,34,0.00,,,0.00,meteohub,2013-08-05 17:42:00,
2013-08-05 11:47:00,90.3,57.4,30.13,WNW,302,3.0,11.0,33,0.00,,,0.00,meteohub,2013-08-05 17:47:00,
2013-08-05 11:52:00,90.7,57.6,30.13,West,269,1.0,11.0,33,0.00,,,0.00,meteohub,2013-08-05 17:52:00,
2013-08-05 11:57:00,91.2,57.2,30.12,NW,324,4.0,11.0,32,0.00,,,0.00,meteohub,2013-08-05 17:57:00,
2013-08-05 12:02:00,91.2,57.2,30.12,West,278,5.0,10.0,32,0.00,,,0.00,meteohub,2013-08-05 18:02:00,
2013-08-05 12:07:00,91.8,57.7,30.12,West,259,6.0,10.0,32,0.00,,,0.00,meteohub,2013-08-05 18:07:00,
2013-08-05 12:12:00,92.5,57.4,30.12,WSW,238,5.0,10.0,31,0.00,,,0.00,meteohub,2013-08-05 18:12:00,
2013-08-05 12:17:00,92.8,57.7,30.12,WNW,288,8.0,10.0,31,0.00,,,0.00,meteohub,2013-08-05 18:17:00,
2013-08-05 12:23:00,91.0,57.0,30.12,WNW,298,3.0,13.0,32,0.00,,,0.00,meteohub,2013-08-05 18:23:00,
2013-08-05 12:29:00,93.4,57.4,30.12,WSW,244,7.0,13.0,30,0.00,,,0.00,meteohub,2013-08-05 18:29:00,
2013-08-05 12:34:00,93.7,55.8,30.12,SW,220,0.0,13.0,28,0.00,,,0.00,meteohub,2013-08-05 18:34:00,
2013-08-05 12:41:00,93.6,56.5,30.11,WSW,256,3.0,12.0,29,0.00,,,0.00,meteohub,2013-08-05 18:41:00,
2013-08-05 12:46:00,94.1,57.0,30.11,West,276,10.0,12.0,29,0.00,,,0.00,meteohub,2013-08-05 18:46:00,
2013-08-05 12:52:00,93.7,56.7,30.11,West,280,3.0,12.0,29,0.00,,,0.00,meteohub,2013-08-05 18:52:00,
2013-08-05 12:57:00,92.8,56.8,30.10,WNW,298,8.0,12.0,30,0.00,,,0.00,meteohub,2013-08-05 18:57:00,
2013-08-05 13:02:00,92.8,55.9,30.10,NW,311,8.0,12.0,29,0.00,,,0.00,meteohub,2013-08-05 19:02:00,
2013-08-05 13:07:00,93.0,56.1,30.10,WNW,293,7.0,11.0,29,0.00,,,0.00,meteohub,2013-08-05 19:07:00,
2013-08-05 13:12:00,94.1,57.0,30.09,SW,225,7.0,12.0,29,0.00,,,0.00,meteohub,2013-08-05 19:12:00,
2013-08-05 13:17:00,94.8,55.6,30.10,NW,310,9.0,12.0,27,0.00,,,0.00,meteohub,2013-08-05 19:17:00,
2013-08-05 13:22:00,93.6,56.5,30.09,NNW,346,5.0,11.0,29,0.00,,,0.00,meteohub,2013-08-05 19:22:00,
2013-08-05 13:27:00,93.4,56.3,30.09,WNW,288,0.0,10.0,29,0.00,,,0.00,meteohub,2013-08-05 19:27:00,
2013-08-05 13:32:00,93.7,55.8,30.09,NE,38,5.0,10.0,28,0.00,,,0.00,meteohub,2013-08-05 19:32:00,
2013-08-05 13:37:00,93.9,56.8,30.09,WNW,299,6.0,9.0,29,0.00,,,0.00,meteohub,2013-08-05 19:37:00,
2013-08-05 13:42:00,95.0,56.8,30.08,West,281,4.0,8.0,28,0.00,,,0.00,meteohub,2013-08-05 19:42:00,
2013-08-05 13:48:00,95.0,55.8,30.08,West,261,2.0,8.0,27,0.00,,,0.00,meteohub,2013-08-05 19:48:00,
2013-08-05 13:54:00,95.2,57.0,30.08,NW,325,2.0,9.0,28,0.00,,,0.00,meteohub,2013-08-05 19:54:00,
2013-08-05 13:59:00,95.0,56.8,30.07,NNE,18,3.0,9.0,28,0.00,,,0.00,meteohub,2013-08-05 19:59:00,
2013-08-05 14:04:00,95.4,57.0,30.07,NNW,329,8.0,10.0,28,0.00,,,0.00,meteohub,2013-08-05 20:04:00,
2013-08-05 14:10:00,95.2,57.0,30.07,NE,37,5.0,11.0,28,0.00,,,0.00,meteohub,2013-08-05 20:10:00,
2013-08-05 14:16:00,95.4,56.1,30.07,ENE,57,0.0,11.0,27,0.00,,,0.00,meteohub,2013-08-05 20:16:00,
2013-08-05 14:22:00,95.5,56.3,30.06,South,173,2.0,10.0,27,0.00,,,0.00,meteohub,2013-08-05 20:22:00,
2013-08-05 14:28:00,95.7,56.3,30.06,NE,52,2.0,7.0,27,0.00,,,0.00,meteohub,2013-08-05 20:28:00,
2013-08-05 14:33:00,96.6,56.1,30.06,NE,36,7.0,7.0,26,0.00,,,0.00,meteohub,2013-08-05 20:33:00,
2013-08-05 14:38:00,96.6,57.2,30.06,WNW,300,2.0,8.0,27,0.00,,,0.00,meteohub,2013-08-05 20:38:00,
2013-08-05 14:44:00,96.6,56.1,30.05,West,273,7.0,8.0,26,0.00,,,0.00,meteohub,2013-08-05 20:44:00,
2013-08-05 14:50:00,97.0,55.4,30.05,West,267,4.0,10.0,25,0.00,,,0.00,meteohub,2013-08-05 20:50:00,
2013-08-05 14:56:00,96.1,55.6,30.05,WNW,287,4.0,10.0,26,0.00,,,0.00,meteohub,2013-08-05 20:56:00,
2013-08-05 15:01:00,97.0,55.4,30.04,SW,229,0.0,8.0,25,0.00,,,0.00,meteohub,2013-08-05 21:01:00,
2013-08-05 15:07:00,96.3,55.8,30.04,SW,221,4.0,6.0,26,0.00,,,0.00,meteohub,2013-08-05 21:07:00,
2013-08-05 15:12:00,96.8,54.1,30.04,West,279,7.0,8.0,24,0.00,,,0.00,meteohub,2013-08-05 21:12:00,
2013-08-05 15:17:00,98.2,54.1,30.04,West,269,5.0,9.0,23,0.00,,,0.00,meteohub,2013-08-05 21:17:00,
2013-08-05 15:23:00,98.2,54.1,30.04,SW,232,5.0,11.0,23,0.00,,,0.00,meteohub,2013-08-05 21:23:00,
2013-08-05 15:29:00,97.9,53.8,30.03,WNW,290,4.0,11.0,23,0.00,,,0.00,meteohub,2013-08-05 21:29:00,
2013-08-05 15:35:00,97.9,53.8,30.03,ESE,107,2.0,11.0,23,0.00,,,0.00,meteohub,2013-08-05 21:35:00,
2013-08-05 15:40:00,97.9,53.8,30.03,SSE,153,3.0,10.0,23,0.00,,,0.00,meteohub,2013-08-05 21:40:00,
2013-08-05 15:46:00,97.9,53.8,30.03,East,92,0.0,10.0,23,0.00,,,0.00,meteohub,2013-08-05 21:46:00,
2013-08-05 15:52:00,98.1,54.0,30.03,West,274,0.0,10.0,23,0.00,,,0.00,meteohub,2013-08-05 21:52:00,
2013-08-05 15:57:00,97.9,52.5,30.03,SSW,196,2.0,8.0,22,0.00,,,0.00,meteohub,2013-08-05 21:57:00,
2013-08-05 16:02:00,98.8,53.2,30.02,SSW,196,5.0,7.0,22,0.00,,,0.00,meteohub,2013-08-05 22:02:00,
2013-08-05 16:07:00,99.1,52.3,30.02,South,183,6.0,11.0,21,0.00,,,0.00,meteohub,2013-08-05 22:07:00,
2013-08-05 16:12:00,99.3,52.5,30.02,SW,226,4.0,11.0,21,0.00,,,0.00,meteohub,2013-08-05 22:12:00,
2013-08-05 16:18:00,99.1,52.3,30.02,SW,234,2.0,17.0,21,0.00,,,0.00,meteohub,2013-08-05 22:18:00,
2013-08-05 16:24:00,98.8,52.0,30.02,South,176,3.0,17.0,21,0.00,,,0.00,meteohub,2013-08-05 22:24:00,
2013-08-05 16:30:00,97.9,51.3,30.02,SSW,200,7.0,14.0,21,0.00,,,0.00,meteohub,2013-08-05 22:30:00,
2013-08-05 16:35:00,98.4,51.8,30.01,South,172,4.0,11.0,21,0.00,,,0.00,meteohub,2013-08-05 22:35:00,
2013-08-05 16:42:00,99.0,50.9,30.02,SSW,212,5.0,11.0,20,0.00,,,0.00,meteohub,2013-08-05 22:42:00,
2013-08-05 16:47:00,98.8,50.7,30.01,SW,229,6.0,14.0,20,0.00,,,0.00,meteohub,2013-08-05 22:47:00,
2013-08-05 16:52:00,98.8,50.7,30.01,South,178,6.0,14.0,20,0.00,,,0.00,meteohub,2013-08-05 22:52:00,
2013-08-05 16:57:00,98.8,50.7,30.01,South,182,10.0,14.0,20,0.00,,,0.00,meteohub,2013-08-05 22:57:00,
2013-08-05 17:02:00,98.1,51.4,30.01,SSW,193,13.0,15.0,21,0.00,,,0.00,meteohub,2013-08-05 23:02:00,
2013-08-05 17:07:00,98.1,52.7,30.01,SSW,199,6.0,18.0,22,0.00,,,0.00,meteohub,2013-08-05 23:07:00,
2013-08-05 17:12:00,98.1,52.7,30.01,SSW,211,7.0,18.0,22,0.00,,,0.00,meteohub,2013-08-05 23:12:00,
2013-08-05 17:17:00,98.2,51.6,30.01,SSW,192,5.0,18.0,21,0.00,,,0.00,meteohub,2013-08-05 23:17:00,
2013-08-05 17:23:00,98.1,52.7,30.00,SSE,165,16.0,16.0,22,0.00,,,0.00,meteohub,2013-08-05 23:23:00,
2013-08-05 17:29:00,98.2,51.6,30.00,SSW,203,8.0,14.0,21,0.00,,,0.00,meteohub,2013-08-05 23:29:00,
2013-08-05 17:35:00,97.7,51.1,30.00,WSW,243,14.0,16.0,21,0.00,,,0.00,meteohub,2013-08-05 23:35:00,
2013-08-05 17:41:00,97.5,52.3,30.00,WSW,256,6.0,15.0,22,0.00,,,0.00,meteohub,2013-08-05 23:41:00,
2013-08-05 17:47:00,97.5,52.3,30.00,SSW,196,11.0,15.0,22,0.00,,,0.00,meteohub,2013-08-05 23:47:00,
2013-08-05 17:52:00,97.2,52.0,30.00,South,184,6.0,16.0,22,0.00,,,0.00,meteohub,2013-08-05 23:52:00,
2013-08-05 17:57:00,97.2,52.0,30.00,SW,220,5.0,16.0,22,0.00,,,0.00,meteohub,2013-08-05 23:57:00,
2013-08-05 18:03:00,96.4,52.5,30.00,SSW,198,7.0,16.0,23,0.00,,,0.00,meteohub,2013-08-06 00:03:00,
2013-08-05 18:09:00,96.1,52.3,30.00,South,190,8.0,17.0,23,0.00,,,0.00,meteohub,2013-08-06 00:09:00,
2013-08-05 18:14:00,96.3,52.5,30.00,South,191,14.0,17.0,23,0.00,,,0.00,meteohub,2013-08-06 00:14:00,
2013-08-05 18:20:00,96.3,52.5,30.00,South,182,12.0,17.0,23,0.00,,,0.00,meteohub,2013-08-06 00:20:00,
2013-08-05 18:25:00,95.7,53.2,30.00,WSW,249,6.0,17.0,24,0.00,,,0.00,meteohub,2013-08-06 00:25:00,
2013-08-05 18:30:00,95.4,52.9,30.00,SSW,207,7.0,18.0,24,0.00,,,0.00,meteohub,2013-08-06 00:30:00,
2013-08-05 18:37:00,95.2,54.9,30.00,SW,219,18.0,18.0,26,0.00,,,0.00,meteohub,2013-08-06 00:37:00,
2013-08-05 18:42:00,94.6,56.5,30.00,SSW,199,15.0,18.0,28,0.00,,,0.00,meteohub,2013-08-06 00:42:00,
2013-08-05 18:47:00,93.7,56.7,30.00,SW,229,9.0,22.0,29,0.00,,,0.00,meteohub,2013-08-06 00:47:00,
2013-08-05 18:52:00,93.7,55.8,30.00,SW,220,14.0,22.0,28,0.00,,,0.00,meteohub,2013-08-06 00:52:00,
2013-08-05 18:58:00,93.2,56.3,30.00,SW,232,9.0,22.0,29,0.00,,,0.00,meteohub,2013-08-06 00:58:00,
2013-08-05 19:04:00,93.0,56.1,30.00,WSW,248,8.0,19.0,29,0.00,,,0.00,meteohub,2013-08-06 01:04:00,
2013-08-05 19:10:00,92.7,56.7,30.00,WNW,284,9.0,19.0,30,0.00,,,0.00,meteohub,2013-08-06 01:10:00,
2013-08-05 19:15:00,92.3,56.3,30.00,SW,235,10.0,17.0,30,0.00,,,0.00,meteohub,2013-08-06 01:15:00,
2013-08-05 19:21:00,91.9,56.1,30.00,WSW,242,7.0,18.0,30,0.00,,,0.00,meteohub,2013-08-06 01:21:00,
2013-08-05 19:27:00,91.8,55.9,30.00,SW,235,8.0,18.0,30,0.00,,,0.00,meteohub,2013-08-06 01:27:00,
2013-08-05 19:32:00,91.4,55.6,30.00,WSW,249,10.0,17.0,30,0.00,,,0.00,meteohub,2013-08-06 01:32:00,
2013-08-05 19:37:00,91.0,56.1,30.01,WSW,246,9.0,16.0,31,0.00,,,0.00,meteohub,2013-08-06 01:37:00,
2013-08-05 19:42:00,90.7,55.9,30.01,SW,232,5.0,16.0,31,0.00,,,0.00,meteohub,2013-08-06 01:42:00,
2013-08-05 19:47:00,90.3,55.6,30.01,WSW,246,10.0,15.0,31,0.00,,,0.00,meteohub,2013-08-06 01:47:00,
2013-08-05 19:52:00,90.1,55.4,30.01,WSW,257,6.0,16.0,31,0.00,,,0.00,meteohub,2013-08-06 01:52:00,
2013-08-05 19:57:00,89.8,55.9,30.01,West,263,7.0,16.0,32,0.00,,,0.00,meteohub,2013-08-06 01:57:00,
2013-08-05 20:02:00,89.4,55.8,30.01,WSW,242,9.0,16.0,32,0.00,,,0.00,meteohub,2013-08-06 02:02:00,
2013-08-05 20:07:00,89.2,56.3,30.01,WSW,254,10.0,16.0,33,0.00,,,0.00,meteohub,2013-08-06 02:07:00,
2013-08-05 20:12:00,88.9,56.1,30.02,SW,231,13.0,17.0,33,0.00,,,0.00,meteohub,2013-08-06 02:12:00,
2013-08-05 20:17:00,88.7,56.7,30.02,WSW,245,8.0,17.0,34,0.00,,,0.00,meteohub,2013-08-06 02:17:00,
2013-08-05 20:22:00,88.5,56.5,30.02,WSW,244,8.0,17.0,34,0.00,,,0.00,meteohub,2013-08-06 02:22:00,
2013-08-05 20:27:00,88.3,56.5,30.02,WSW,240,7.0,17.0,34,0.00,,,0.00,meteohub,2013-08-06 02:27:00,
2013-08-05 20:32:00,88.2,56.3,30.03,SW,236,9.0,14.0,34,0.00,,,0.00,meteohub,2013-08-06 02:32:00,
2013-08-05 20:37:00,88.0,56.8,30.03,WSW,240,12.0,18.0,35,0.00,,,0.00,meteohub,2013-08-06 02:37:00,
2013-08-05 20:43:00,87.4,57.2,30.03,WSW,250,9.0,18.0,36,0.00,,,0.00,meteohub,2013-08-06 02:43:00,
2013-08-05 20:49:00,87.3,57.7,30.04,West,263,12.0,18.0,37,0.00,,,0.00,meteohub,2013-08-06 02:49:00,
2013-08-05 20:54:00,86.7,57.4,30.04,SW,234,9.0,17.0,37,0.00,,,0.00,meteohub,2013-08-06 02:54:00,
2013-08-05 21:00:00,86.5,57.9,30.04,West,269,10.0,17.0,38,0.00,,,0.00,meteohub,2013-08-06 03:00:00,
2013-08-05 21:06:00,86.4,58.5,30.04,West,262,8.0,17.0,39,0.00,,,0.00,meteohub,2013-08-06 03:06:00,
2013-08-05 21:11:00,86.0,58.1,30.05,WSW,245,8.0,17.0,39,0.00,,,0.00,meteohub,2013-08-06 03:11:00,
2013-08-05 21:17:00,85.8,57.9,30.05,WSW,239,6.0,17.0,39,0.00,,,0.00,meteohub,2013-08-06 03:17:00,
2013-08-05 21:22:00,85.6,57.9,30.05,West,269,6.0,14.0,39,0.00,,,0.00,meteohub,2013-08-06 03:22:00,
2013-08-05 21:27:00,85.5,58.5,30.06,WSW,251,6.0,13.0,40,0.00,,,0.00,meteohub,2013-08-06 03:27:00,
2013-08-05 21:32:00,85.3,58.3,30.06,WSW,242,13.0,13.0,40,0.00,,,0.00,meteohub,2013-08-06 03:32:00,
2013-08-05 21:37:00,85.1,58.1,30.06,WSW,257,8.0,14.0,40,0.00,,,0.00,meteohub,2013-08-06 03:37:00,
2013-08-05 21:42:00,84.9,58.6,30.06,WSW,244,10.0,14.0,41,0.00,,,0.00,meteohub,2013-08-06 03:42:00,
2013-08-05 21:47:00,84.7,58.5,30.06,West,263,15.0,16.0,41,0.00,,,0.00,meteohub,2013-08-06 03:47:00,
2013-08-05 21:52:00,84.7,59.2,30.06,SW,232,12.0,16.0,42,0.00,,,0.00,meteohub,2013-08-06 03:52:00,
2013-08-05 21:57:00,84.4,59.4,30.06,West,264,10.0,16.0,43,0.00,,,0.00,meteohub,2013-08-06 03:57:00,
2013-08-05 22:01:00,84.4,60.1,30.06,WSW,238,14.0,17.0,44,0.00,,,0.00,meteohub,2013-08-06 04:01:00,
2013-08-05 22:02:00,84.4,60.1,30.06,SW,222,6.0,17.0,44,0.00,,,0.00,meteohub,2013-08-06 04:02:00,
2013-08-05 22:04:00,84.2,59.9,30.06,WSW,245,11.0,17.0,44,0.00,,,0.00,meteohub,2013-08-06 04:04:00,
2013-08-05 22:05:00,84.0,59.7,30.07,WSW,244,10.0,17.0,44,0.00,,,0.00,meteohub,2013-08-06 04:05:00,
2013-08-05 22:07:00,84.0,59.7,30.07,WSW,238,9.0,18.0,44,0.00,,,0.00,meteohub,2013-08-06 04:07:00,
2013-08-05 22:13:00,83.7,60.1,30.07,West,267,5.0,18.0,45,0.00,,,0.00,meteohub,2013-08-06 04:13:00,
2013-08-05 22:19:00,83.3,60.4,30.08,WSW,250,13.0,18.0,46,0.00,,,0.00,meteohub,2013-08-06 04:19:00,
2013-08-05 22:25:00,83.1,60.3,30.07,West,275,7.0,18.0,46,0.00,,,0.00,meteohub,2013-08-06 04:25:00,
2013-08-05 22:31:00,82.8,60.4,30.07,WSW,248,6.0,18.0,47,0.00,,,0.00,meteohub,2013-08-06 04:31:00,
2013-08-05 22:37:00,82.6,60.3,30.07,West,269,14.0,16.0,47,0.00,,,0.00,meteohub,2013-08-06 04:37:00,
2013-08-05 22:42:00,82.4,60.1,30.07,WSW,257,12.0,18.0,47,0.00,,,0.00,meteohub,2013-08-06 04:42:00,
2013-08-05 22:47:00,82.2,59.9,30.07,WSW,239,7.0,18.0,47,0.00,,,0.00,meteohub,2013-08-06 04:47:00,
2013-08-05 22:52:00,82.0,59.9,30.08,West,261,11.0,18.0,47,0.00,,,0.00,meteohub,2013-08-06 04:52:00,
2013-08-05 22:57:00,81.9,60.3,30.08,West,262,8.0,18.0,48,0.00,,,0.00,meteohub,2013-08-06 04:57:00,
2013-08-05 23:02:00,81.7,59.5,30.08,West,260,8.0,16.0,47,0.00,,,0.00,meteohub,2013-08-06 05:02:00,
2013-08-05 23:07:00,81.5,59.4,30.08,West,269,12.0,17.0,47,0.00,,,0.00,meteohub,2013-08-06 05:07:00,
2013-08-05 23:12:00,81.3,59.2,30.08,WSW,251,8.0,17.0,47,0.00,,,0.00,meteohub,2013-08-06 05:12:00,
2013-08-05 23:17:00,81.1,59.0,30.08,SW,224,6.0,17.0,47,0.00,,,0.00,meteohub,2013-08-06 05:17:00,
2013-08-05 23:22:00,81.1,58.5,30.09,WSW,248,5.0,15.0,46,0.00,,,0.00,meteohub,2013-08-06 05:22:00,
2013-08-05 23:27:00,81.0,58.3,30.09,West,259,8.0,14.0,46,0.00,,,0.00,meteohub,2013-08-06 05:27:00,
2013-08-05 23:32:00,80.8,57.4,30.09,WSW,249,6.0,12.0,45,0.00,,,0.00,meteohub,2013-08-06 05:32:00,
2013-08-05 23:37:00,80.8,56.8,30.09,WSW,251,7.0,15.0,44,0.00,,,0.00,meteohub,2013-08-06 05:37:00,
2013-08-05 23:42:00,80.6,56.1,30.09,WSW,254,5.0,15.0,43,0.00,,,0.00,meteohub,2013-08-06 05:42:00,
2013-08-05 23:47:00,80.4,55.9,30.09,SW,235,5.0,15.0,43,0.00,,,0.00,meteohub,2013-08-06 05:47:00,
2013-08-05 23:52:00,80.2,55.8,30.09,West,261,8.0,12.0,43,0.00,,,0.00,meteohub,2013-08-06 05:52:00,
2013-08-05 23:57:00,80.2,56.3,30.09,WSW,252,7.0,13.0,44,0.00,,,0.00,meteohub,2013-08-06 05:57:00,